Regional Weather Roundup
Issued by NWS

Home | Current Version | Previous Version | Graphics & Text | Print | Product List | Glossary On
Versions: 1 2 3 4 5 6 7 8 9 10 11 12 13 14 15 16 17 18 19 20 21 22 23 24 25 26 27 28 29 30 31 32 33 34 35 36 37 38 39 40 41 42 43 44 45 46 47 48 49 50
000
ASUS43 KLMK 260202
RWRKY
KENTUCKY REGIONAL WEATHER ROUNDUP
NATIONAL WEATHER SERVICE LOUISVILLE KY
900 PM EST THU DEC 25 2014

NOTE "FAIR" INDICATES FEW OR NO CLOUDS BELOW 12,000 FEET
WITH NO SIGNIFICANT WEATHER AND/OR OBSTRUCTIONS TO VISIBILITY.

KYZ001>023-026-027-061>063-070>075-260300-
WESTERN AND SOUTH CENTRAL KENTUCKY

CITY           SKY/WX    TMP DP  RH WIND       PRES   REMARKS
PADUCAH        CLEAR     39  31  72 S6        30.11R WCI  35
HENDERSON      CLEAR     39  30  70 SE6       30.13R WCI  35
OWENSBORO      CLEAR     40  34  79 S9        30.15S WCI  34
HOPKINSVILLE   CLEAR     42  34  71 SE6       30.13F
BOWLING GREEN  CLEAR     36  30  79 CALM      30.17F
GLASGOW        NOT AVBL
$$

KYZ024-025-028>034-038-045-046-053-260300-
NORTH CENTRAL KENTUCKY

CITY           SKY/WX    TMP DP  RH WIND       PRES   REMARKS
LOUISVILLE/SDF CLEAR     37  32  82 SE6       30.18F WCI  32
LOUISVILLE/LOU CLEAR     39  32  76 CALM      30.19F
FORT KNOX      CLEAR     34  31  87 E5        30.16F WCI  30
$$

KYZ035>037-039>044-047>052-055>060-089>105-260300-
NORTHEAST KENTUCKY

CITY           SKY/WX    TMP DP  RH WIND       PRES   REMARKS
LEXINGTON      CLEAR     34  30  85 SE7       30.21F WCI  28
COVINGTON      PTCLDY    33  27  78 S7        30.19S WCI  27
FRANKFORT      CLEAR     34  29  82 SE5       30.19F WCI  30
$$

KYZ054-064>069-076>088-106>120-260300-
SOUTHEAST KENTUCKY

CITY           SKY/WX    TMP DP  RH WIND       PRES   REMARKS
JACKSON        CLEAR     38  30  73 S3        30.23F
LONDON         CLEAR     34  28  79 CALM      30.20F
SOMERSET       CLEAR     32  32 100 CALM      30.22F
MIDDLESBORO    NOT AVBL
MONTICELLO     CLEAR     30  30 100 CALM      30.22F
$$



USA.gov is the U.S. government's official web portal to all federal, state and local government web resources and services.